Location: Avon School (historical)
(37.7514°N, 90.2201°W)
Time: 03:36:31
(UTC+00:00)

Vanguard 2 Rocket - Pass Details

Date: 20 November 2024
Orbit: 554 x 3296 km, 32.9° (Epoch: 03 December)

Event Time Altitude Azimuth Distance (km) Brightness Sun altitude
Exits shadow 08:28:02 12° 141° (SE) 3,494 10.0 -50.8°
Maximum altitude 08:30:07 13° 128° (SE) 3,654 10.2 -50.4°
Drops below altitude 10° 08:34:54 10° 103° (ESE) 4,443 10.8 -49.4°
Sets 08:42:15 0° 82° (E) 6,146 11.8 -48.0°
